Hourly Data Report for October 20, 2013

All times are specified in Local Standard Time (LST). Add 1 hour to adjust for Daylight Saving Time where and when it is observed.

FREDERICTON
NEW BRUNSWICK

45°52'08.000" N
66°32'14.000" W
20.70 m
8101505
71700
YFC

Download Data

Hourly Data (October 2013)
Hourly Data Report for October 20, 2013
Temp Definition
°C
Dew Point Temp Definition
°C
Rel Hum Definition
%
Wind Dir Definition
10's deg

Wind Spd Definition
km/h
Visibility Definition
km
Stn Press Definition
kPa
Hmdx Definition


Wind Chill Definition


Weather Definition


TIME
00:00 Legend Double Dagger 7.1 6.1 93   0 16.1 100.67     LegendNANA
01:00 Legend Double Dagger 6.9 5.9 93 21 5 16.1 100.63     LegendNANA
02:00 Legend Double Dagger 7.2 6.0 92   0 16.1 100.63     LegendNANA
03:00 Legend Double Dagger 7.2 6.3 94 2 8 16.1 100.53     LegendNANA
04:00 Legend Double Dagger 6.5 5.9 96 3 4 16.1 100.49     LegendNANA
05:00 Legend Double Dagger 6.5 5.8 95 9 5 16.1 100.47     LegendNANA
06:00 Legend Double Dagger 6.9 6.5 97 36 5 16.1 100.39     LegendNANA
07:00 Legend Double Dagger 6.9 6.5 97 6 4 12.9 100.35     LegendNANA
08:00 Legend Double Dagger 7.7 7.3 97 3 4 11.3 100.38     LegendNANA
09:00 Legend Double Dagger 9.4 8.9 97 9 8 9.7 100.31     LegendNANA
10:00 Legend Double Dagger 11.3 10.1 92 13 11 16.1 100.25     LegendNANA
11:00 Legend Double Dagger 11.2 10.1 93 11 9 9.7 100.19     LegendNANA
12:00 Legend Double Dagger 11.9 10.5 91 16 8 16.1 100.12     LegendNANA
13:00 Legend Double Dagger 11.6 10.1 91 15 8 16.1 100.08     LegendNANA
14:00 Legend Double Dagger 12.5 10.8 89 21 11 16.1 100.08     LegendNANA
15:00 Legend Double Dagger 13.0 9.5 79 30 21 16.1 100.13     LegendNANA
16:00 Legend Double Dagger 13.2 7.2 67 26 13 16.1 100.18     LegendNANA
17:00 Legend Double Dagger 12.1 6.3 68 25 9 16.1 100.21     LegendNANA
18:00 Legend Double Dagger 7.4 6.0 91 22 9 16.1 100.27     LegendNANA
19:00 Legend Double Dagger 8.1 3.6 73 24 11 16.1 100.37     LegendNANA
20:00 Legend Double Dagger 4.5 2.5 87 23 13 16.1 100.46     LegendNANA
21:00 Legend Double Dagger 3.9 2.2 89 20 8 16.1 100.55     LegendNANA
22:00 Legend Double Dagger 2.7 1.4 91 24 11 16.1 100.60     LegendNANA
23:00 Legend Double Dagger 6.5 0.9 67 24 13 16.1 100.62     LegendNANA

Notes on Data Quality.

Legend

  • E = Estimated
  • M = Missing
  • NA = Not Available
  • ‡ = Partner data that is not subject to review by the National Climate Archives
Date modified: